Regional Weather Roundup
Issued by NWS Sioux Falls, SD

Home | Current Version | Previous Version | Text Only | Print | Product List | Glossary Off
Versions: 1 2 3 4 5 6 7 8 9 10 11 12 13 14 15 16 17 18 19 20 21 22 23 24 25 26 27 28 29 30 31 32 33 34 35 36 37 38 39 40 41 42 43 44 45 46 47 48 49 50

000
ASUS43 KFSD 152102
RWRFSD

WEATHER ROUNDUP FOR SE SOUTH DAKOTA/SW MINNESOTA/NW IOWA
NATIONAL WEATHER SERVICE SIOUX FALLS SD
400 PM CDT TUE APR 15 2014

NOTE: "FAIR" INDICATES FEW OR NO CLOUDS BELOW 12,000 FEET WITH NO
SIGNIFICANT WEATHER AND OR OBSTRUCTIONS TO VISIBILITY.


SDZ038>040-050-052>070-152200-
SOUTHEAST SOUTH DAKOTA

CITY           SKY/WX    TMP DP  RH WIND       PRES   REMARKS
CHAMBERLAIN      N/A     60  22  23 S25       29.71F
HURON          PTSUNNY   48  17  29 S18G32    29.82F
MITCHELL       SUNNY     51  22  31 S23G36    29.84F
SIOUX FALLS    MOSUNNY   46  18  32 S20G29    29.92F
WINNER         FAIR      66  22  18 S18       29.66F
YANKTON        MOSUNNY   48  25  40 S21G30    29.90F
$$

MNZ071-072-080-081-089-090-097-098-152200-
SOUTHWEST MINNESOTA

CITY           SKY/WX    TMP DP  RH WIND       PRES   REMARKS
FAIRMONT       SUNNY     36   7  30 S7        30.06F
JACKSON        PTSUNNY   39   7  26 SE10G17   30.01F
LUVERNE        SUNNY     45  18  33 S21G26    29.96F
MARSHALL       MOSUNNY   41  10  28 SE16G22   29.97F
MONTEVIDEO     CLOUDY    39  10  30 S7        30.02F
PIPESTONE      PTSUNNY   41  12  30 S16       29.93F
REDWOOD FALLS  PTSUNNY   36   8  31 VRB6      30.03F
TRACY          CLOUDY    41  11  29 S10       29.98F
WINDOM         CLOUDY    39   5  24 SE8       30.01F
WORTHINGTON    SUNNY     39  12  33 S12G21    30.00F
$$

IAZ001>003-012>014-020>022-031-032-NEZ013-014-SDZ071-152200-
NORTHWEST IOWA

CITY           SKY/WX    TMP DP  RH WIND       PRES   REMARKS
CHEROKEE       SUNNY     43  23  45 S15G23    30.01F
DENISON        SUNNY     45  25  45 S14G22    30.02F
ESTHERVILLE    SUNNY     38  14  37 S14G20    30.02F
SHELDON        PTSUNNY   41  19  42 S17G26    29.98F
SIOUX CITY     SUNNY     50  23  34 SE14G26   29.98F
SPENCER        SUNNY     41  21  44 S15       30.01F
STORM LAKE     SUNNY     41  23  48 SE16      30.03F
$$

ABBREVIATIONS USED IN REMARKS
   TC - TEMPERATURE IN CELSIUS
  WCI - WIND CHILL INDEX
   HX - HEAT INDEX
  VSB - VISIBILITY




USA.gov is the U.S. government's official web portal to all federal, state and local government web resources and services.